This demonstration page uses our WeatherBlox Daily Observations layout. Learn more.

Left ArrowRight Arrow

Hourly Observations for April 3, 2018

Temp ( °F °C ) Dew Point ( °F °C ) Humidity (%) Winds ( mph kmh ) Pressure ( in mb ) Visibility ( mi km ) Precip ( " mm )
12:53 am 00:53 Mostly Cloudy with Freezing Fog 31 -0.6 31 -0.6 100 100 E 8 13 29.63 1003 1 1 0.00 0.00
1:53 am 01:53 Mostly Cloudy with Freezing Fog 31 -0.6 31 -0.6 100 100 ENE 14 22 29.64 1004 1 1 0.00 0.00
2:53 am 02:53 Mostly Cloudy with Freezing Fog 30 -1.1 30 -1.1 100 100 N 13 20 29.70 1006 1 1 0.00 0.00
3:53 am 03:53 Mostly Cloudy with Mist and Fog 30 -1.1 30 -1.1 100 100 N 17 28 29.70 1006 1 1 0.00 0.00
4:02 am 04:02 Cloudy with Mist and Fog 28 -2 28 -2 100 100 N 16 26 29.80 1009 2 2 0.00 0.00
4:34 am 04:34 Cloudy with Mist and Fog 28 -2 28 -2 100 100 N 14 22 29.77 1008 2 3 0.00 0.00
4:53 am 04:53 Cloudy with Mist and Fog 29 -1.7 29 -1.7 100 100 N 16 26 29.72 1006 1 2 0.00 0.00
5:08 am 05:08 Cloudy with Mist and Fog 28 -2 28 -2 100 100 N 17 28 29.80 1009 3 5 0.00 0.00
5:53 am 05:53 Cloudy with Mist and Fog 29 -1.7 29 -1.7 100 100 N 18 30 29.76 1008 5 8 0.00 0.00
6:02 am 06:02 Cloudy with Mist and Fog 28 -2 28 -2 100 100 N 20 31 29.83 1010 6 10 0.00 0.00
6:53 am 06:53 Cloudy with Mist and Fog 29 -1.7 28 -2.2 96 96 NNW 20 31 29.81 1010 6 10 0.00 0.00
7:09 am 07:09 Cloudy with Mist and Fog 29 -1.7 29 -1.7 100 100 N 20 31 29.85 1011 6 10 0.00 0.00
7:29 am 07:29 Cloudy 30 -1.1 29 -1.7 96 96 NNW 20 31 29.88 1012 7 11 0.00 0.00
7:53 am 07:53 Cloudy with Mist and Fog 30 -1.1 29 -1.7 96 96 NNW 17 28 29.86 1011 6 10 0.00 0.00
8:09 am 08:09 Cloudy 30 -1.1 29 -1.7 96 96 NNW 17 28 29.91 1013 7 11 0.00 0.00
8:26 am 08:26 Cloudy 31 -0.6 30 -1.1 96 96 NNW 17 28 29.94 1014 7 11 0.00 0.00
8:50 am 08:50 Cloudy 30 -1 28 -2 93 93 NNW 21 33 29.94 1014 10 16 0.00 0.00
8:53 am 08:53 Cloudy 31 -0.6 29 -1.7 92 92 NNW 18 30 29.91 1013 10 16 0.00 0.00
9:07 am 09:07 Cloudy 31 -0.6 29 -1.7 92 92 NNW 23 37 29.97 1015 10 16 0.00 0.00
9:53 am 09:53 Cloudy 30 -1.1 27 -2.8 88 88 NW 30 48 29.97 1015 10 16 0.00 0.00
10:53 am 10:53 Cloudy 28 -2.2 24 -4.4 85 85 NW 26 43 30.03 1017 10 16 0.00 0.00
11:10 am 11:10 Cloudy 28 -2 21 -6 74 74 NW 28 44 30.12 1020 10 16 0.00 0.00
11:53 am 11:53 Cloudy 29 -1.7 21 -6.1 72 72 NNW 31 50 30.08 1019 10 16 0.00 0.00
12:53 pm 12:53 Mostly Cloudy 32 0 21 -6.1 64 64 NNW 31 50 30.09 1019 10 16 0.00 0.00
1:06 pm 13:06 Mostly Cloudy 30 -1 19 -7 64 64 NNW 32 52 30.12 1020 10 16 0.00 0.00
1:53 pm 13:53 Mostly Sunny 33 0.6 21 -6.1 61 61 NNW 30 48 30.11 1020 10 16 0.00 0.00
2:53 pm 14:53 Mostly Sunny 35 1.7 21 -6.1 57 57 NNW 33 54 30.13 1020 10 16 0.00 0.00
3:53 pm 15:53 Mostly Sunny 35 1.7 20 -6.7 54 54 N 31 50 30.16 1021 10 16 0.00 0.00
4:53 pm 16:53 Sunny 35 1.7 18 -7.8 50 50 NNW 29 46 30.18 1022 10 16 0.00 0.00
5:53 pm 17:53 Sunny 34 1.1 17 -8.3 50 50 NNW 23 37 30.20 1023 10 16 0.00 0.00
6:53 pm 18:53 Sunny 32 0 17 -8.3 54 54 NNW 23 37 30.23 1024 10 16 0.00 0.00
7:53 pm 19:53 Sunny 28 -2.2 16 -8.9 60 60 NNW 18 30 30.26 1025 10 16 0.00 0.00
8:53 pm 20:53 Clear 26 -3.3 16 -8.9 66 66 N 15 24 30.27 1025 10 16 0.00 0.00
9:53 pm 21:53 Clear 24 -4.4 15 -9.4 68 68 N 15 24 30.30 1026 10 16 0.00 0.00
10:53 pm 22:53 Clear 22 -5.6 15 -9.4 75 75 N 12 19 30.32 1027 10 16 0.00 0.00
11:53 pm 23:53 Clear 20 -6.7 14 -10 78 78 N 13 20 30.33 1027 10 16 0.00 0.00

Powered by AerisWeather